WC1Z Weather Reports


Display with metric or nautical units.
time (UTC)temp
F
wind
direction
speed
MPH
gust
MPH
rain 1hr
in
rain 24hr
in
rain mn
in
humidity
%
barometer
mb
20260904123700 73 110 1.0 2.0 0.00 0.00 0.00 95 1014.7
20260904123201 73 21 0.0 1.0 0.00 0.00 0.00 95 1014.7
20260904122700 73 78 1.0 1.0 0.00 0.00 0.00 95 1014.6
20260904122200 73 124 1.0 2.0 0.00 0.00 0.00 95 1014.6
20260904121700 72 109 1.0 2.0 0.00 0.00 0.00 95 1014.5
20260904121200 72 105 1.0 1.0 0.00 0.00 0.00 95 1014.4
20260904120701 72 104 1.0 1.0 0.00 0.00 0.00 95 1014.4
20260904120200 72 154 0.0 1.0 0.00 0.00 0.00 95 1014.3
20260904115700 72 245 1.0 2.0 0.00 0.00 0.00 95 1014.3
20260904115201 72 190 1.0 1.0 0.00 0.00 0.00 95 1014.3
20260904114700 72 108 1.0 1.0 0.00 0.00 0.00 95 1014.3
20260904114200 72 110 1.0 2.0 0.00 0.00 0.00 95 1014.2
20260904113700 72 118 1.0 1.0 0.00 0.00 0.00 95 1014.2
20260904113200 73 152 1.0 1.0 0.00 0.00 0.00 95 1014.2
20260904112700 73 360 0.0 0.0 0.00 0.00 0.00 95 1014.2
20260904112200 72 114 1.0 2.0 0.00 0.00 0.00 95 1014.2
20260904111700 73 100 1.0 2.0 0.00 0.00 0.00 95 1014.1
20260904111201 73 109 1.0 2.0 0.00 0.00 0.00 95 1014.1
20260904110702 73 128 1.0 2.0 0.00 0.00 0.00 95 1014.1
20260904110200 73 107 1.0 1.0 0.00 0.00 0.00 95 1014.1
20260904105700 73 104 0.0 1.0 0.00 0.00 0.00 95 1014.0
20260904105204 73 106 1.0 1.0 0.00 0.00 0.00 95 1014.1
20260904104700 73 110 0.0 0.0 0.00 0.00 0.00 95 1014.1
20260904104200 73 163 0.0 0.0 0.00 0.00 0.00 94 1014.1
20260904103700 73 164 0.0 0.0 0.00 0.00 0.00 95 1014.1
20260904103201 73 330 0.0 1.0 0.00 0.00 0.00 95 1014.1
20260904102700 73 85 1.0 1.0 0.00 0.00 0.00 95 1014.1
20260904102200 73 113 2.0 3.0 0.00 0.00 0.00 95 1014.1
20260904101700 73 107 1.0 2.0 0.00 0.00 0.00 95 1014.2
20260904101201 73 92 2.0 3.0 0.00 0.00 0.00 95 1014.2
20260904100702 73 92 2.0 2.0 0.00 0.00 0.00 94 1014.1
20260904100200 73 115 1.0 1.0 0.00 0.00 0.00 94 1014.1
20260904095700 73 163 0.0 0.0 0.00 0.00 0.00 94 1014.1
20260904095201 73 166 0.0 0.0 0.00 0.00 0.00 94 1014.0
20260904094700 73 126 1.0 2.0 0.00 0.00 0.00 94 1014.0
20260904094159 73 103 2.0 2.0 0.00 0.00 0.00 94 1014.0
20260904093700 73 121 1.0 1.0 0.00 0.00 0.00 94 1013.9
20260904093200 73 137 1.0 1.0 0.00 0.00 0.00 94 1013.8
20260904092701 73 86 1.0 1.0 0.00 0.00 0.00 94 1013.8
20260904092159 73 114 1.0 1.0 0.00 0.00 0.00 94 1013.8
20260904091703 73 16 1.0 2.0 0.00 0.00 0.00 94 1013.8
20260904091200 73 353 1.0 2.0 0.00 0.00 0.00 94 1013.8
20260904090701 73 357 0.0 1.0 0.00 0.00 0.00 94 1013.7
20260904090200 73 360 0.0 0.0 0.00 0.00 0.00 94 1013.7
20260904085702 73 144 0.0 0.0 0.00 0.00 0.00 94 1013.7
20260904085200 73 118 1.0 3.0 0.00 0.00 0.00 94 1013.7
20260904084700 73 106 2.0 2.0 0.00 0.00 0.00 94 1013.7
20260904084201 73 118 2.0 2.0 0.00 0.00 0.00 94 1013.8
20260904083700 73 134 2.0 3.0 0.00 0.00 0.00 94 1013.7
20260904083200 73 354 1.0 3.0 0.00 0.00 0.00 94 1013.6
20260904082700 73 360 0.0 0.0 0.00 0.00 0.00 94 1013.5
20260904082201 72 324 1.0 1.0 0.00 0.00 0.00 94 1013.5
20260904081700 72 281 0.0 0.0 0.00 0.00 0.00 94 1013.5
20260904081201 73 360 0.0 0.0 0.00 0.00 0.00 94 1013.5
20260904080700 73 316 1.0 3.0 0.00 0.00 0.00 94 1013.5
20260904080200 73 360 0.0 0.0 0.00 0.00 0.00 94 1013.5
20260904075701 73 360 0.0 0.0 0.00 0.00 0.00 93 1013.6
20260904075200 73 130 1.0 2.0 0.00 0.00 0.00 93 1013.5
20260904074700 73 360 0.0 0.0 0.00 0.00 0.00 93 1013.5
20260904074200 73 360 0.0 0.0 0.00 0.00 0.00 93 1013.4
20260904073700 73 360 0.0 0.0 0.00 0.00 0.00 93 1013.4
20260904073200 73 360 0.0 0.0 0.00 0.00 0.00 93 1013.5
20260904072701 73 18 0.0 0.0 0.00 0.00 0.00 93 1013.5
20260904072202 73 109 1.0 1.0 0.00 0.00 0.00 93 1013.6
20260904071700 73 360 0.0 0.0 0.00 0.00 0.00 93 1013.6
20260904071200 73 360 0.0 0.0 0.00 0.00 0.00 93 1013.6
20260904070700 73 360 0.0 0.0 0.00 0.00 0.00 93 1013.6
20260904070200 74 133 0.0 0.0 0.00 0.00 0.00 93 1013.7
20260904065700 74 122 0.0 1.0 0.00 0.00 0.00 93 1013.8
20260904065200 74 360 0.0 0.0 0.00 0.00 0.00 93 1013.8
20260904064700 74 137 1.0 2.0 0.00 0.00 0.00 93 1013.8
20260904064201 74 360 0.0 0.0 0.00 0.00 0.00 92 1013.8
20260904063700 74 360 0.0 0.0 0.00 0.00 0.00 92 1013.7
20260904063200 74 360 0.0 0.0 0.00 0.00 0.00 92 1013.7
20260904062700 74 360 0.0 0.0 0.00 0.00 0.00 92 1013.7
20260904062200 74 158 1.0 1.0 0.00 0.00 0.00 92 1013.7
20260904061700 74 130 0.0 1.0 0.00 0.00 0.00 92 1013.6
20260904061200 74 107 2.0 2.0 0.00 0.00 0.00 92 1013.6
20260904060701 74 98 0.0 1.0 0.00 0.00 0.00 92 1013.6
20260904060200 75 160 1.0 1.0 0.00 0.00 0.00 92 1013.5
20260904055700 75 360 0.0 0.0 0.00 0.00 0.00 92 1013.5
20260904055200 75 75 0.0 1.0 0.00 0.00 0.00 91 1013.4
20260904054700 75 360 0.0 0.0 0.00 0.00 0.00 91 1013.4
20260904054200 75 173 0.0 1.0 0.00 0.00 0.00 91 1013.3
20260904053700 75 161 0.0 1.0 0.00 0.00 0.00 91 1013.3
20260904053200 75 360 0.0 0.0 0.00 0.00 0.00 91 1013.4
20260904052701 75 88 0.0 0.0 0.00 0.00 0.00 91 1013.4
20260904052200 75 128 2.0 2.0 0.00 0.00 0.00 91 1013.4
20260904051700 75 11 1.0 1.0 0.00 0.00 0.00 91 1013.3
20260904051200 75 360 0.0 0.0 0.00 0.00 0.00 91 1013.2
20260904050701 76 360 0.0 0.0 0.00 0.00 0.00 90 1013.2
20260904050200 76 360 0.0 0.0 0.00 0.00 0.00 90 1013.2
20260904045700 76 360 0.0 0.0 0.00 0.00 0.00 90 1013.2
20260904045201 76 360 0.0 0.0 0.00 0.00 0.00 90 1013.1
20260904044700 76 360 0.0 0.0 0.00 0.00 0.00 90 1013.0
20260904044200 76 360 0.0 0.0 0.00 0.00 0.00 90 1013.0
20260904043701 76 118 0.0 1.0 0.00 0.00 0.00 90 1013.0
20260904043200 76 360 0.0 0.0 0.00 0.00 0.00 89 1013.1
20260904042700 76 360 0.0 0.0 0.00 0.00 0.00 89 1013.1
20260904042200 76 360 0.0 0.0 0.00 0.00 0.00 89 1013.1
20260904041700 76 95 0.0 1.0 0.00 0.00 0.00 89 1013.1
20260904041200 76 111 0.0 1.0 0.00 0.00 0.00 89 1013.1
20260904040700 76 91 0.0 0.0 0.00 0.00 0.00 89 1013.1
20260904040200 76 360 0.0 0.0 0.00 0.00 0.00 89 1013.1
20260904035700 76 360 0.0 0.0 0.00 0.00 0.00 89 1013.2
20260904035200 76 360 0.0 0.0 0.00 0.00 0.00 89 1013.3
20260904034700 76 325 0.0 0.0 0.00 0.00 0.00 89 1013.3
20260904034201 76 360 0.0 0.0 0.00 0.00 0.00 89 1013.2
20260904033701 76 360 0.0 0.0 0.00 0.00 0.00 89 1013.2
20260904033200 76 360 0.0 0.0 0.00 0.00 0.00 89 1013.3
20260904032700 77 255 1.0 2.0 0.00 0.00 0.00 88 1013.4
20260904032201 77 360 0.0 0.0 0.00 0.00 0.00 88 1013.4
20260904031700 77 360 0.0 0.0 0.00 0.00 0.00 88 1013.4
20260904031200 77 360 0.0 0.0 0.00 0.00 0.00 87 1013.5
20260904030704 78 299 1.0 2.0 0.00 0.00 0.00 87 1013.5
20260904030202 78 291 0.0 1.0 0.00 0.00 0.00 86 1013.5
20260904025700 78 360 0.0 0.0 0.00 0.00 0.00 86 1013.5
20260904025201 79 303 0.0 1.0 0.00 0.00 0.00 85 1013.5
20260904024700 79 360 0.0 0.0 0.00 0.00 0.00 84 1013.5
20260904024200 79 360 0.0 0.0 0.00 0.00 0.00 82 1013.5
20260904023700 80 360 0.0 0.0 0.00 0.00 0.00 82 1013.5
20260904023204 80 329 0.0 1.0 0.00 0.00 0.00 81 1013.5
20260904022700 80 60 0.0 1.0 0.00 0.00 0.00 81 1013.5
20260904022200 80 71 0.0 1.0 0.00 0.00 0.00 81 1013.5
20260904021701 81 360 0.0 0.0 0.00 0.00 0.00 81 1013.6
20260904021200 81 360 0.0 0.0 0.00 0.00 0.00 80 1013.5
20260904020701 81 16 0.0 1.0 0.00 0.00 0.00 79 1013.4
20260904020200 81 360 0.0 0.0 0.00 0.00 0.00 79 1013.4
20260904015700 81 68 0.0 0.0 0.00 0.00 0.00 79 1013.3
20260904015201 81 360 0.0 0.0 0.00 0.00 0.00 78 1013.2
20260904014700 82 273 0.0 1.0 0.00 0.00 0.00 78 1013.2
20260904014201 82 113 0.0 1.0 0.00 0.00 0.00 77 1013.2
20260904013700 82 70 0.0 1.0 0.00 0.00 0.00 77 1013.1
20260904013200 82 360 0.0 0.0 0.00 0.00 0.00 78 1013.1
20260904012702 82 62 0.0 2.0 0.00 0.00 0.00 77 1013.0
20260904012200 82 88 0.0 2.0 0.00 0.00 0.00 78 1013.0
20260904011700 83 360 0.0 0.0 0.00 0.00 0.00 77 1012.9
20260904011200 83 33 0.0 1.0 0.00 0.00 0.00 76 1012.9
20260904010700 83 360 0.0 0.0 0.00 0.00 0.00 74 1012.8
20260904010200 84 360 0.0 0.0 0.00 0.00 0.00 73 1012.7
20260904005704 84 360 0.0 0.0 0.00 0.00 0.00 73 1012.7
20260904005200 85 360 0.0 0.0 0.00 0.00 0.00 71 1012.6
20260904004700 85 360 0.0 0.0 0.00 0.00 0.00 70 1012.6
20260904004203 86 360 0.0 0.0 0.00 0.00 0.00 68 1012.6
20260904003700 86 360 0.0 0.0 0.00 0.00 0.00 67 1012.6
20260904003200 87 178 1.0 2.0 0.00 0.00 0.00 67 1012.6
20260904002700 87 102 3.0 4.0 0.00 0.00 0.00 66 1012.6
20260904002200 87 131 2.0 2.0 0.00 0.00 0.00 65 1012.6
20260904001700 88 161 2.0 3.0 0.00 0.00 0.00 65 1012.5
20260904001201 88 151 2.0 3.0 0.00 0.00 0.00 65 1012.5
20260904000700 88 117 2.0 5.0 0.00 0.00 0.00 64 1012.5
20260904000200 88 119 4.0 5.0 0.00 0.00 0.00 64 1012.5
20260903235701 89 120 1.0 3.0 0.00 0.00 0.00 64 1012.5
20260903235200 89 176 4.0 6.0 0.00 0.00 0.00 63 1012.6
20260903234700 89 154 4.0 5.0 0.00 0.00 0.00 62 1012.6
20260903234200 89 162 3.0 6.0 0.00 0.00 0.00 64 1012.6
20260903233700 89 127 4.0 7.0 0.00 0.00 0.00 64 1012.6
20260903233201 89 133 3.0 5.0 0.00 0.00 0.00 65 1012.6
20260903232700 89 163 1.0 3.0 0.00 0.00 0.00 66 1012.6
20260903232201 89 86 4.0 6.0 0.00 0.00 0.00 66 1012.6
20260903231701 89 108 4.0 5.0 0.00 0.00 0.00 66 1012.7
20260903231201 89 187 3.0 4.0 0.00 0.00 0.00 65 1012.7
20260903230700 89 171 4.0 6.0 0.00 0.00 0.00 66 1012.6
20260903230200 89 163 6.0 7.0 0.00 0.00 0.00 66 1012.7
20260903225702 89 162 4.0 7.0 0.00 0.00 0.00 66 1012.7
20260903225200 89 114 2.0 4.0 0.00 0.00 0.00 66 1012.6
20260903224701 89 190 3.0 5.0 0.00 0.00 0.00 66 1012.7
20260903224201 89 199 2.0 3.0 0.00 0.00 0.00 67 1012.8
20260903223700 89 164 7.0 9.0 0.00 0.00 0.00 66 1012.8
20260903223200 89 161 4.0 5.0 0.00 0.00 0.00 67 1012.8
20260903222700 89 172 4.0 7.0 0.00 0.00 0.00 68 1012.8
20260903222200 89 162 5.0 7.0 0.00 0.00 0.00 68 1012.9
20260903221701 89 115 4.0 6.0 0.00 0.00 0.00 68 1012.9
20260903221200 89 182 4.0 7.0 0.00 0.00 0.00 67 1013.1
20260903220700 89 177 3.0 7.0 0.00 0.00 0.00 68 1013.1
20260903220200 89 189 5.0 8.0 0.00 0.00 0.00 67 1013.1
20260903215700 89 184 5.0 9.0 0.00 0.00 0.00 68 1013.2
20260903215202 89 171 5.0 9.0 0.00 0.00 0.00 68 1013.3
20260903214702 88 179 5.0 8.0 0.00 0.00 0.00 69 1013.4
20260903214201 88 167 6.0 9.0 0.00 0.00 0.00 69 1013.4
20260903213700 88 123 5.0 8.0 0.00 0.00 0.00 69 1013.5
20260903213200 89 149 5.0 7.0 0.00 0.00 0.00 69 1013.5
20260903212700 89 150 4.0 6.0 0.00 0.00 0.00 70 1013.6
20260903212201 89 168 4.0 8.0 0.00 0.00 0.00 70 1013.6
20260903211701 88 145 3.0 6.0 0.00 0.00 0.00 69 1013.6
20260903211201 89 158 5.0 8.0 0.00 0.00 0.00 69 1013.6
20260903210701 88 172 7.0 11.0 0.00 0.00 0.00 69 1013.7
20260903210200 88 180 7.0 11.0 0.00 0.00 0.00 70 1013.7
20260903205700 88 167 5.0 9.0 0.00 0.00 0.00 69 1013.8
20260903205200 88 171 6.0 7.0 0.00 0.00 0.00 70 1013.8
20260903204701 87 177 5.0 9.0 0.00 0.00 0.00 69 1013.9
20260903204201 86 115 2.0 5.0 0.00 0.00 0.00 71 1013.9
20260903203700 86 168 6.0 10.0 0.00 0.00 0.00 72 1013.9
20260903203207 86 160 2.0 4.0 0.00 0.00 0.00 74 1013.9
20260903202700 85 168 4.0 5.0 0.00 0.00 0.00 73 1013.9
20260903202200 85 147 3.0 4.0 0.00 0.00 0.00 74 1013.9
20260903201701 85 157 5.0 7.0 0.00 0.00 0.00 74 1014.0
20260903201202 85 161 6.0 9.0 0.00 0.00 0.00 73 1014.0
20260903200700 86 160 4.0 8.0 0.00 0.00 0.00 72 1014.0
20260903200200 86 107 5.0 7.0 0.00 0.00 0.00 73 1014.0
20260903195701 86 128 4.0 6.0 0.00 0.00 0.00 72 1014.0
20260903195201 87 126 5.0 11.0 0.00 0.00 0.00 72 1014.0
20260903194701 88 124 6.0 11.0 0.00 0.00 0.00 71 1013.8
20260903194200 89 173 7.0 12.0 0.00 0.00 0.00 70 1013.9
20260903193700 90 187 4.0 6.0 0.00 0.00 0.00 63 1013.9
20260903193201 90 194 3.0 4.0 0.00 0.00 0.00 63 1014.0
20260903192700 90 164 4.0 6.0 0.00 0.00 0.00 61 1014.0
20260903192204 91 145 4.0 5.0 0.00 0.00 0.00 59 1014.1
20260903191700 91 183 4.0 4.0 0.00 0.00 0.00 58 1014.2
20260903191200 92 189 5.0 7.0 0.00 0.00 0.00 56 1014.3
20260903190701 91 237 5.0 7.0 0.00 0.00 0.00 61 1014.4
20260903190200 91 219 5.0 8.0 0.00 0.00 0.00 61 1014.4
20260903185700 90 269 4.0 6.0 0.00 0.00 0.00 61 1014.5
20260903185200 90 169 6.0 7.0 0.00 0.00 0.00 61 1014.5
20260903184703 90 127 1.0 3.0 0.00 0.00 0.00 58 1014.5
20260903184200 90 194 3.0 5.0 0.00 0.00 0.00 60 1014.6
20260903183700 91 176 2.0 4.0 0.00 0.00 0.00 59 1014.4
20260903183202 91 201 4.0 6.0 0.00 0.00 0.00 58 1014.3
20260903182700 91 171 6.0 9.0 0.00 0.00 0.00 57 1014.3
20260903182201 91 260 3.0 5.0 0.00 0.00 0.00 60 1014.4
20260903181701 90 277 3.0 5.0 0.00 0.00 0.00 60 1014.4
20260903181200 90 224 5.0 7.0 0.00 0.00 0.00 60 1014.4
20260903180703 90 266 5.0 7.0 0.00 0.00 0.00 59 1014.6
20260903180201 89 317 0.0 2.0 0.00 0.00 0.00 60 1014.7
20260903175700 89 222 4.0 5.0 0.00 0.00 0.00 60 1014.9
20260903175202 90 248 5.0 8.0 0.00 0.00 0.00 64 1015.0
20260903174700 90 209 2.0 5.0 0.00 0.00 0.00 62 1015.1
20260903174201 89 207 3.0 5.0 0.00 0.00 0.00 63 1015.2
20260903173700 89 166 6.0 8.0 0.00 0.00 0.00 63 1015.2
20260903173203 89 223 4.0 8.0 0.00 0.00 0.00 62 1015.4
20260903172701 89 181 1.0 5.0 0.00 0.00 0.00 62 1015.4
20260903172201 88 248 5.0 8.0 0.00 0.00 0.00 63 1015.6
20260903171701 88 255 2.0 4.0 0.00 0.00 0.00 66 1015.6
20260903171206 88 253 5.0 6.0 0.00 0.00 0.00 67 1015.7
20260903170701 88 229 3.0 6.0 0.00 0.00 0.00 67 1015.7
20260903170200 87 233 5.0 6.0 0.00 0.00 0.00 67 1015.7
20260903165700 87 229 4.0 6.0 0.00 0.00 0.00 68 1015.8
20260903165200 86 279 4.0 5.0 0.00 0.00 0.00 69 1015.8
20260903164700 86 268 4.0 6.0 0.00 0.00 0.00 71 1015.8
20260903164202 86 290 4.0 7.0 0.00 0.00 0.00 70 1015.9
20260903163700 86 276 2.0 3.0 0.00 0.00 0.00 71 1015.9
20260903163200 86 250 4.0 5.0 0.00 0.00 0.00 71 1015.9
20260903162701 86 219 2.0 4.0 0.00 0.00 0.00 73 1015.9
20260903162202 86 268 5.0 8.0 0.00 0.00 0.00 73 1015.9
20260903161700 85 266 4.0 5.0 0.00 0.00 0.00 74 1016.0
20260903161201 85 253 4.0 8.0 0.00 0.00 0.00 75 1016.0
20260903160701 85 237 2.0 4.0 0.00 0.00 0.00 76 1016.0
20260903160201 85 262 4.0 6.0 0.00 0.00 0.00 77 1015.9
20260903155700 85 253 3.0 5.0 0.00 0.00 0.00 78 1015.8
20260903155200 84 212 3.0 4.0 0.00 0.00 0.00 77 1015.8
20260903154702 84 247 4.0 5.0 0.00 0.00 0.00 78 1015.9
20260903154200 83 191 3.0 4.0 0.00 0.00 0.00 79 1015.9
20260903153700 83 250 3.0 4.0 0.00 0.00 0.00 81 1015.8
20260903153202 82 299 2.0 4.0 0.00 0.00 0.00 83 1015.8
20260903152701 82 291 3.0 4.0 0.00 0.00 0.00 85 1015.7
20260903152200 82 259 3.0 4.0 0.00 0.00 0.00 84 1015.7
20260903151700 82 312 3.0 4.0 0.00 0.00 0.00 87 1015.8
20260903151201 82 251 5.0 7.0 0.00 0.00 0.00 86 1015.7
20260903150704 82 260 5.0 8.0 0.00 0.00 0.00 87 1015.7
20260903150200 82 248 3.0 4.0 0.00 0.00 0.00 87 1015.8
20260903145700 82 250 0.0 2.0 0.00 0.00 0.00 88 1015.7
20260903145200 82 185 3.0 5.0 0.00 0.00 0.00 90 1015.8
20260903144701 82 212 5.0 7.0 0.00 0.00 0.00 89 1015.7
20260903144201 82 229 4.0 6.0 0.00 0.00 0.00 88 1015.7
20260903143700 82 195 3.0 5.0 0.00 0.00 0.00 88 1015.7
20260903143200 82 212 3.0 4.0 0.00 0.00 0.00 90 1015.7
20260903142701 82 217 3.0 4.0 0.00 0.00 0.00 91 1015.7
20260903142200 82 178 3.0 4.0 0.00 0.00 0.00 90 1015.7
20260903141700 81 182 3.0 4.0 0.00 0.00 0.00 91 1015.8
20260903141201 81 155 4.0 5.0 0.00 0.00 0.00 91 1015.8
20260903140701 81 146 1.0 2.0 0.00 0.00 0.00 92 1015.8
20260903140201 80 161 3.0 4.0 0.00 0.00 0.00 91 1015.7
20260903135700 81 144 1.0 2.0 0.00 0.00 0.00 92 1015.8
20260903135200 80 105 3.0 4.0 0.00 0.00 0.00 92 1015.8
20260903134701 80 158 2.0 4.0 0.00 0.00 0.00 92 1015.8
20260903134200 80 162 4.0 5.0 0.00 0.00 0.00 93 1015.9
20260903133701 80 175 2.0 4.0 0.00 0.00 0.00 94 1015.9
20260903133200 80 126 2.0 4.0 0.00 0.00 0.00 94 1015.9
20260903132700 79 170 3.0 4.0 0.00 0.00 0.00 94 1015.9
20260903132201 79 176 3.0 4.0 0.00 0.00 0.00 95 1015.8
20260903131700 79 178 2.0 4.0 0.00 0.00 0.00 95 1015.8
20260903131201 79 151 2.0 4.0 0.00 0.00 0.00 95 1015.8
20260903130700 78 122 2.0 3.0 0.00 0.00 0.00 95 1015.7
20260903130204 78 105 2.0 2.0 0.00 0.00 0.00 96 1015.6
20260903125701 78 105 2.0 3.0 0.00 0.00 0.00 96 1015.5
20260903125201 78 115 2.0 2.0 0.00 0.00 0.00 96 1015.6
20260903124700 78 125 1.0 1.0 0.00 0.00 0.00 96 1015.6
20260903124200 77 118 2.0 2.0 0.00 0.00 0.00 96 1015.5